Flag for Germany Weather past 2 weeks in Kassel, Hesse, Germany

Now
52 °F

Scattered clouds.


Feels Like: 48 °F
Forecast: 46 / 50 °F
Wind: 12 mph from Southwest

Location: Kassel / Calden

Current Time: Mar 28, 2015 at 1:40:20 PM

Latest Report: Mar 28, 2015 at 1:20 PM


Visibility: N/A

Pressure: 30.01 "Hg

Humidity: 50%

Dew point: 34 °F

Location of KasselLocation

Historic Weather in Kassel — Graph

°F

Kassel temperature yesterday

Maximum temperature yesterday: 43 °F (at 9:50 AM)
Minimum temperature yesterday: 39 °F (at 5:50 AM)
Average temperature yesterday: 42 °F

Past Weeks' High & Low Weather Summary

 TemperatureHumidityPressure
High63 °F (Mar 25, 1:50 PM)100% (Mar 17, 6:20 AM)30.33 "Hg (Mar 17, 6:20 AM)
Low27 °F (Mar 23, 5:50 AM)37% (Mar 25, 1:50 PM)29.62 "Hg (Mar 25, 2:20 PM)
Average42 °F77%30.10 "Hg
* Reported Mar 13 12:20 PM — Mar 28 12:20 PM, Kassel, Weather by CustomWeather, © 2015

Note: Actual official high and low records may vary slightly from our data, if they occured in-between our weather recording intervals... More about our weather records

Advertising

Kassel weather history for previous 24 hours

 ConditionsComfort  
Time TempWeatherWind HumidityBarometerVisibility
12:20 PM
Sat, Mar 28
48 °FScattered clouds.10 mph54%30.07 "HgN/A
11:50 AM48 °FPartly sunny.13 mph58%30.07 "HgN/A
11:20 AM46 °FScattered clouds.9 mph62%30.07 "HgN/A
10:50 AM46 °FPassing clouds.13 mph57%30.09 "HgN/A
10:20 AM46 °FPassing clouds.12 mph62%30.12 "HgN/A
9:50 AM45 °FPassing clouds.10 mph66%30.12 "HgN/A
9:20 AM43 °FScattered clouds.7 mph76%30.12 "HgN/A
8:50 AM41 °FPassing clouds.5 mph76%30.15 "HgN/A
8:20 AM39 °FSunny.3 mph81%30.15 "Hg10 mi
7:50 AM37 °FSunny.2 mph87%30.15 "Hg10 mi
7:20 AM36 °FSunny.2 mph81%30.15 "Hg10 mi
6:50 AM32 °FSunny.2 mph93%30.15 "Hg10 mi
6:20 AM32 °FPassing clouds.2 mph93%30.15 "HgN/A
5:50 AM34 °FPassing clouds.3 mph87%30.15 "HgN/A
9:50 PM
Fri, Mar 27
41 °FMostly cloudy.15 mph81%30.15 "HgN/A
9:20 PM41 °FPassing clouds.13 mph87%30.12 "HgN/A
8:50 PM41 °FOvercast.10 mph81%30.12 "HgN/A
8:20 PM41 °FOvercast.14 mph87%30.12 "HgN/A
7:50 PM41 °FOvercast.15 mph81%30.09 "HgN/A
7:20 PM43 °FOvercast.15 mph76%30.09 "HgN/A
6:50 PM43 °FMostly cloudy.12 mph76%30.07 "HgN/A
6:20 PM43 °FBroken clouds.16 mph76%30.07 "HgN/A
5:50 PM43 °FMostly cloudy.15 mph76%30.04 "HgN/A
5:20 PM43 °FMostly cloudy.13 mph76%30.04 "HgN/A
4:50 PM41 °FPartly sunny.13 mph87%30.04 "HgN/A
4:20 PM41 °FLight rain. Partly sunny.18 mph87%30.04 "Hg5 mi
3:50 PM43 °FLow clouds.12 mph76%30.01 "HgN/A
3:20 PM43 °FDrizzle. Mostly cloudy.12 mph81%30.01 "HgN/A
2:50 PM43 °FOvercast.15 mph76%29.98 "HgN/A
2:20 PM43 °FMostly cloudy.18 mph76%29.98 "HgN/A
1:50 PM43 °FPartly sunny.21 mph76%29.98 "HgN/A
1:20 PM43 °FMostly cloudy.12 mph81%29.95 "HgN/A
Weather by CustomWeather, © 2015

See weather overviewHow to use our weather pages